DateTimeUTC,F1_A11,F1_S11,BsB_S11,BsG_S11,BsR_S11,BbsB_S11,BbsG_S11,BbsR_S11,BaB_A11,BaG_A11,BaR_A11,Tu_S11,T_S11,Uu_S11,U_S11,P_S11,T1_A11
2021-01-03T15:00:00Z,00000200,21000000,,,,,,,-000.18,0000.09,-000.31,16.0,23.4,,00.0,0632.8,30.7
2021-01-03T15:01:00Z,00000200,21000000,,,,,,,0000.17,-000.44,0000.10,16.0,23.5,,00.0,0632.8,30.7
2021-01-03T15:02:00Z,00000200,21000000,,,,,,,-000.17,-000.23,-000.21,16.1,23.5,,00.0,0632.8,30.7
2021-01-03T15:03:00Z,00000200,61000000,,,,,,,0000.14,-000.03,0000.11,16.1,23.5,,00.0,0632.8,30.7
2021-01-03T15:04:00Z,00000200,41000000,-000.06,0000.11,0000.24,0000.15,0000.01,0000.06,0000.06,0000.25,-000.27,16.3,23.3,,00.0,0633.8,30.7
2021-01-03T15:05:00Z,00000200,01000000,0000.86,0000.08,-000.17,0000.01,0000.15,0000.07,-000.38,-000.16,0000.05,16.4,23.3,,00.0,0633.8,30.7
2021-01-03T15:06:00Z,00000200,01000000,0000.46,0000.12,0000.05,0000.29,0000.31,0000.02,0000.16,0000.15,0000.12,16.4,23.3,,00.0,0633.8,30.7
2021-01-03T15:07:00Z,00000200,01000000,0000.31,0000.22,-000.15,0000.01,0000.01,0000.05,-000.17,0000.00,-000.35,16.3,23.2,,00.0,0633.8,30.7
2021-01-03T15:08:00Z,00000200,01000000,0000.33,0000.41,0000.15,-000.15,0000.26,0000.55,0000.10,-000.23,0000.29,16.3,23.2,,00.0,0633.8,30.7
2021-01-03T15:09:00Z,00000200,01000000,-000.05,-000.02,0000.29,0000.50,-000.21,0000.07,0000.02,0000.31,-000.04,16.3,23.2,,00.0,0633.8,30.7
2021-01-03T15:10:00Z,00000200,01000000,0000.41,0000.23,-000.15,0000.29,-000.19,-000.02,0000.29,0000.02,0000.19,16.3,23.1,,00.0,0633.8,30.7
2021-01-03T15:11:00Z,00000200,01000000,-000.39,0000.22,0000.02,0000.17,0000.19,0000.09,0000.06,0000.16,-000.00,16.3,23.1,,00.0,0633.8,30.7
2021-01-03T15:12:00Z,00000200,01000000,0000.74,-000.01,0000.01,-000.01,0000.11,0000.07,0000.01,0000.12,0000.08,16.4,23.2,,00.0,0633.8,30.7
2021-01-03T15:13:00Z,00000200,01000000,0000.72,0000.24,-000.17,0000.28,0000.09,0000.21,0000.13,0000.04,0000.14,16.4,23.2,,00.0,0633.8,30.7
2021-01-03T15:14:00Z,00000200,01000000,-000.31,0000.55,0000.06,0000.29,0000.19,0000.06,0000.06,-000.04,0000.02,16.5,23.2,,00.0,0633.8,30.7
2021-01-03T15:15:00Z,00000200,01000000,0000.11,0000.35,0000.21,-000.00,0000.13,0000.21,0000.24,0000.28,0000.22,16.6,23.3,,00.0,0633.8,30.8
2021-01-03T15:16:00Z,00000200,01000000,0000.25,0000.18,-000.14,-000.27,0000.09,0000.22,-000.09,-000.11,-000.02,16.6,23.3,,00.0,0633.8,30.8
2021-01-03T15:17:00Z,00000200,01000000,0000.47,0000.23,-000.34,0000.40,0000.04,0000.16,-000.07,0000.06,-000.05,16.7,23.4,,00.0,0633.8,30.8
2021-01-03T15:18:00Z,00000200,01000000,-000.33,0000.18,-000.13,0000.17,0000.34,-000.17,0000.16,-000.27,0000.21,16.7,23.3,,00.0,0633.8,30.8
2021-01-03T15:19:00Z,00000200,01000000,0000.37,0000.19,-000.02,0000.70,0000.36,0000.10,-000.35,-000.25,-000.78,16.6,23.3,,00.0,0633.8,30.7
2021-01-03T15:20:00Z,00000200,01000000,0000.44,-000.02,-000.05,-000.24,0000.22,0000.23,-000.16,0000.28,0000.06,16.6,23.3,,00.0,0633.8,30.7
2021-01-03T15:21:00Z,00000200,01000000,0000.30,0000.50,0000.02,0000.16,-000.01,0000.00,-000.10,0000.04,0000.02,16.5,23.3,,00.0,0633.8,30.7
2021-01-03T15:22:00Z,00000200,01000000,0000.36,0000.11,0000.09,0000.49,-000.09,0000.22,0000.49,-000.39,-000.02,16.5,23.3,,00.0,0633.8,30.7
2021-01-03T15:23:00Z,00000200,01000000,0000.21,0000.21,-000.02,-000.07,0000.18,-000.16,-000.25,-000.01,0000.07,16.5,23.2,,00.0,0633.8,30.7
2021-01-03T15:24:00Z,00000200,01000000,0000.84,0000.37,-000.12,-000.35,0000.07,0000.19,0000.17,0000.28,0000.06,16.4,23.2,,00.0,0633.8,30.7
2021-01-03T15:25:00Z,00000200,01000000,0000.02,0000.38,-000.20,0000.13,0000.02,-000.15,0000.01,0000.01,0000.17,16.4,23.2,,00.0,0633.8,30.7
2021-01-03T15:26:00Z,00000200,01000000,-000.26,0000.40,-000.01,0000.35,0000.15,0000.07,-000.07,0000.02,-000.05,16.4,23.2,,00.0,0633.8,30.7
2021-01-03T15:27:00Z,00000200,01000000,0000.18,0000.20,-000.41,0000.47,0000.18,0000.08,0000.12,0000.02,-000.08,16.5,23.2,,00.0,0633.8,30.7
2021-01-03T15:28:00Z,00000200,01000000,0000.35,0000.32,0000.06,0000.19,-000.01,0000.08,-000.05,0000.05,0000.12,16.5,23.2,,00.0,0633.8,30.7
2021-01-03T15:29:00Z,00000200,01000000,0000.13,0000.26,-000.09,0000.52,0000.16,-000.10,0000.06,-000.07,0000.03,16.5,23.2,,00.0,0633.8,30.7
2021-01-03T15:30:00Z,00000200,01000000,0000.09,0000.47,-000.16,0000.46,0000.15,0000.22,-000.24,0000.01,-000.27,16.5,23.2,,00.0,0633.8,30.7
2021-01-03T15:31:00Z,00000200,01000000,0000.62,0000.12,-000.27,-000.24,0000.22,-000.13,-000.21,-000.11,-000.12,16.4,23.2,,00.0,0633.7,30.6
2021-01-03T15:32:00Z,00000200,01000000,0000.28,0000.45,-000.19,0000.23,0000.13,0000.25,0000.34,0000.18,0000.36,16.3,23.1,,00.0,0633.7,30.6
2021-01-03T15:33:00Z,00000200,01000000,-000.20,0000.02,-000.22,-000.28,0000.02,0000.05,0000.22,0000.17,-000.20,16.3,23.1,,00.0,0633.7,30.6
2021-01-03T15:34:00Z,00000200,01000000,0000.23,0000.12,0000.07,-000.27,0000.20,0000.29,0000.06,0000.02,0000.39,16.3,23.1,,00.0,0633.7,30.6
2021-01-03T15:35:00Z,00000200,01000000,-000.22,0000.29,0000.16,0000.07,-000.21,0000.17,0000.13,0000.04,-000.15,16.2,23.0,,00.0,0633.7,30.6
2021-01-03T15:36:00Z,00000200,01000000,0000.15,-000.01,-000.05,0000.00,0000.10,0000.08,-000.05,0000.00,0000.07,16.2,23.0,,00.0,0633.7,30.6
2021-01-03T15:37:00Z,00000200,01000000,0000.19,0000.50,0000.04,-000.08,-000.03,0000.13,-000.29,0000.02,0000.35,16.1,23.0,,00.0,0633.7,30.6
2021-01-03T15:38:00Z,00000200,01000000,-000.22,0000.36,0000.17,0000.03,0000.03,-000.14,0000.31,-000.12,-000.30,16.1,23.0,,00.0,0633.7,30.6
2021-01-03T15:39:00Z,00000200,01000000,0000.05,0000.14,0000.07,0000.52,0000.03,0000.33,0000.10,0000.37,0000.02,16.1,22.9,,00.0,0633.7,30.6
2021-01-03T15:40:00Z,00000200,01000000,-000.54,0000.07,0000.02,0000.02,-000.04,0000.16,-000.16,-000.13,0000.27,16.0,22.9,,00.0,0633.7,30.6
2021-01-03T15:41:00Z,00000200,01000000,-000.24,0000.40,0000.09,-000.07,0000.18,0000.16,0000.36,0000.11,-000.16,16.0,22.9,,00.0,0633.7,30.6
2021-01-03T15:42:00Z,00000200,01000000,0000.44,0000.22,0000.33,0000.01,0000.07,0000.21,0000.28,0000.37,0000.18,16.0,22.9,,00.0,0633.7,30.6
2021-01-03T15:43:00Z,00000200,01000000,0000.59,0000.47,0000.24,0000.40,0000.15,0000.18,-000.19,0000.07,0000.03,16.1,22.9,,00.0,0633.7,30.6
2021-01-03T15:44:00Z,00000200,01000000,0000.52,0000.29,0000.09,0000.31,0000.14,0000.25,0000.17,-000.23,0000.17,16.2,23.0,,00.0,0633.8,30.7
2021-01-03T15:45:00Z,00000200,01000000,0000.16,0000.37,-000.12,0000.13,0000.06,0000.06,0000.04,0000.44,-000.05,16.3,23.0,,00.0,0633.8,30.7
2021-01-03T15:46:00Z,00000200,01000000,0000.22,0000.24,-000.05,0000.51,-000.00,-000.01,0000.35,-000.30,0000.19,16.3,23.0,,00.0,0633.8,30.7
2021-01-03T15:47:00Z,00000200,01000000,0000.27,0000.22,-000.05,0000.37,-000.11,0000.01,-000.36,-000.22,-000.07,16.3,23.0,,00.0,0633.8,30.7
2021-01-03T15:48:00Z,00000200,01000000,0000.07,0000.46,-000.05,0000.21,0000.03,0000.07,-000.27,0000.18,-000.09,16.2,23.0,,00.0,0633.8,30.7
2021-01-03T15:49:00Z,00000200,01000000,0000.61,0000.60,0000.24,0000.36,-000.05,0000.22,0000.41,-000.13,0000.08,16.2,23.0,,00.0,0633.8,30.7
2021-01-03T15:50:00Z,00000200,01000000,0000.72,0000.17,0000.09,-000.02,0000.10,0000.14,-000.30,0000.09,0000.02,16.2,22.9,,00.0,0633.7,30.7
2021-01-03T15:51:00Z,00000200,01000000,0000.25,0000.23,-000.05,0000.33,-000.17,0000.30,0000.15,0000.22,0000.10,16.1,22.9,,00.0,0633.7,30.7
2021-01-03T15:52:00Z,00000200,01000000,0000.81,0000.24,0000.27,-000.15,0000.14,0000.21,-000.05,-000.06,0000.03,16.1,22.9,,00.0,0633.8,30.6
2021-01-03T15:53:00Z,00000200,01000000,0000.17,0000.25,0000.03,-000.01,-000.09,-000.11,-000.07,0000.10,-000.21,16.0,22.8,,00.0,0633.7,30.6
2021-01-03T15:54:00Z,00000200,01000000,-000.46,0000.20,0000.07,0000.15,0000.13,-000.07,0000.33,0000.18,-000.04,16.0,22.8,,00.0,0633.7,30.6
2021-01-03T15:55:00Z,00000200,01000000,0000.42,0000.31,0000.07,0000.23,0000.15,0000.25,0000.36,0000.23,0000.53,15.9,22.8,,00.0,0633.7,30.6
2021-01-03T15:56:00Z,00000200,01000000,0000.06,0000.30,0000.21,0000.34,-000.06,0000.35,0000.04,0000.40,0000.45,15.9,22.8,,00.0,0633.7,30.6
2021-01-03T15:57:00Z,00000200,41000000,,,,,,,0000.16,-000.18,-000.19,16.0,22.8,,00.0,0633.7,30.6
2021-01-03T15:58:00Z,00000200,61000000,,,,,,,0000.19,0000.15,0000.02,15.7,23.0,,00.0,0632.8,30.6
2021-01-03T15:59:00Z,00000200,21000000,,,,,,,-000.42,-000.33,0000.10,15.7,23.1,,00.0,0632.8,30.7
